| time (UTC) | temp F | wind direction | speed MPH | gust MPH | rain 1hr in | rain 24hr in | rain mn in | humidity % | barometer mb |
| 20260906182104 | 69 | 92 | 1.0 | 3.0 | 0.03 | 0.83 | 0.83 | 67 | 1018.6 |
| 20260906181604 | 70 | 267 | 1.0 | 6.0 | 0.02 | 0.82 | 0.82 | 66 | 1018.3 |
| 20260906181104 | 71 | 18 | 4.0 | 8.0 | 0.01 | 0.81 | 0.81 | 65 | 1018.3 |
| 20260906180604 | 71 | 212 | 3.0 | 10.0 | 0.00 | 0.80 | 0.80 | 65 | 1018.3 |
| 20260906175604 | 71 | 180 | 7.0 | 15.0 | 0.00 | 0.80 | 0.80 | 62 | 1018.6 |
| 20260906174104 | 69 | 180 | 6.0 | 20.0 | 0.00 | 0.80 | 0.80 | 61 | 1017.9 |
| 20260906173604 | 69 | 161 | 10.0 | 18.0 | 0.02 | 0.80 | 0.80 | 61 | 1017.9 |
| 20260906173104 | 69 | 169 | 10.0 | 16.0 | 0.05 | 0.80 | 0.80 | 61 | 1018.6 |
| 20260906172604 | 69 | 148 | 11.0 | 21.0 | 0.06 | 0.80 | 0.80 | 60 | 1018.6 |
| 20260906172104 | 69 | 149 | 10.0 | 22.0 | 0.10 | 0.80 | 0.80 | 57 | 1018.6 |
| 20260906171104 | 69 | 171 | 7.0 | 14.0 | 0.37 | 0.80 | 0.80 | 58 | 1019.3 |
| 20260906170604 | 69 | 195 | 3.0 | 8.0 | 0.60 | 0.80 | 0.80 | 57 | 1019.3 |
| 20260906165604 | 69 | 181 | 9.0 | 17.0 | 0.80 | 0.80 | 0.80 | 48 | 1019.0 |
| 20260906165104 | 68 | 171 | 10.0 | 17.0 | 0.80 | 0.80 | 0.80 | 45 | 1019.0 |
| 20260906164604 | 67 | 172 | 10.0 | 15.0 | 0.80 | 0.80 | 0.80 | 44 | 1019.0 |
| 20260906164104 | 67 | 165 | 5.0 | 12.0 | 0.80 | 0.80 | 0.80 | 44 | 1019.0 |
| 20260906163604 | 66 | 171 | 4.0 | 8.0 | 0.78 | 0.78 | 0.78 | 45 | 1019.0 |
| 20260906162604 | 66 | 56 | 4.0 | 12.0 | 0.74 | 0.74 | 0.74 | 48 | 1017.6 |
| 20260906162104 | 66 | 114 | 3.0 | 10.0 | 0.70 | 0.70 | 0.70 | 56 | 1017.6 |
| 20260906161604 | 67 | 130 | 6.0 | 10.0 | 0.61 | 0.61 | 0.61 | 64 | 1017.6 |
| 20260906161104 | 68 | 138 | 6.0 | 13.0 | 0.43 | 0.43 | 0.43 | 65 | 1017.6 |
| 20260906160604 | 70 | 57 | 3.0 | 9.0 | 0.20 | 0.20 | 0.20 | 62 | 1017.6 |
| 20260906160104 | 70 | 94 | 12.0 | 22.0 | 0.03 | 0.03 | 0.03 | 61 | 1017.3 |
| 20260906155604 | 69 | 18 | 18.0 | 32.0 | 0.00 | 0.00 | 0.00 | 62 | 1017.3 |
| 20260906155104 | 69 | 79 | 14.0 | 31.0 | 0.00 | 0.00 | 0.00 | 61 | 1017.3 |
| 20260906154604 | 71 | 75 | 12.0 | 26.0 | 0.00 | 0.01 | 0.00 | 59 | 1017.3 |
| 20260906154104 | 71 | 78 | 10.0 | 20.0 | 0.00 | 0.01 | 0.00 | 52 | 1017.3 |
| 20260906153604 | 72 | 85 | 7.0 | 20.0 | 0.00 | 0.02 | 0.00 | 53 | 1017.3 |
| 20260906153104 | 72 | 99 | 5.0 | 15.0 | 0.00 | 0.03 | 0.00 | 53 | 1017.3 |
| 20260906152604 | 72 | 105 | 4.0 | 14.0 | 0.00 | 0.04 | 0.00 | 53 | 1017.3 |
| 20260906152104 | 73 | 115 | 3.0 | 10.0 | 0.00 | 0.05 | 0.00 | 54 | 1017.3 |
| 20260906151604 | 73 | 96 | 5.0 | 12.0 | 0.00 | 0.07 | 0.00 | 54 | 1017.3 |
| 20260906151104 | 73 | 106 | 5.0 | 10.0 | 0.00 | 0.07 | 0.00 | 54 | 1017.3 |
| 20260906150604 | 72 | 141 | 3.0 | 7.0 | 0.00 | 0.08 | 0.00 | 54 | 1017.3 |
| 20260906145604 | 72 | 172 | 2.0 | 7.0 | 0.00 | 0.08 | 0.00 | 54 | 1017.6 |
| 20260906145104 | 72 | 157 | 3.0 | 7.0 | 0.00 | 0.08 | 0.00 | 54 | 1017.6 |
| 20260906144604 | 72 | 137 | 4.0 | 9.0 | 0.00 | 0.09 | 0.00 | 54 | 1017.6 |
| 20260906143604 | 72 | 126 | 3.0 | 6.0 | 0.00 | 0.09 | 0.00 | 54 | 1017.6 |
| 20260906143104 | 72 | 139 | 2.0 | 7.0 | 0.00 | 0.09 | 0.00 | 54 | 1017.6 |
| 20260906142604 | 72 | 104 | 2.0 | 9.0 | 0.00 | 0.09 | 0.00 | 54 | 1017.6 |
| 20260906141604 | 72 | 132 | 3.0 | 10.0 | 0.00 | 0.09 | 0.00 | 54 | 1017.6 |
| 20260906141104 | 72 | 147 | 2.0 | 10.0 | 0.00 | 0.09 | 0.00 | 54 | 1017.6 |
| 20260906140604 | 72 | 187 | 3.0 | 7.0 | 0.00 | 0.09 | 0.00 | 54 | 1017.6 |
| 20260906135104 | 72 | 136 | 3.0 | 9.0 | 0.00 | 0.10 | 0.00 | 54 | 1017.3 |
| 20260906134604 | 72 | 155 | 3.0 | 8.0 | 0.00 | 0.12 | 0.00 | 54 | 1017.3 |
| 20260906134104 | 72 | 147 | 3.0 | 7.0 | 0.00 | 0.14 | 0.00 | 54 | 1017.3 |
| 20260906133604 | 72 | 128 | 2.0 | 8.0 | 0.00 | 0.15 | 0.00 | 54 | 1017.3 |
| 20260906133104 | 72 | 172 | 5.0 | 10.0 | 0.00 | 0.15 | 0.00 | 54 | 1017.3 |
| 20260906132604 | 71 | 175 | 6.0 | 10.0 | 0.00 | 0.15 | 0.00 | 54 | 1017.3 |
| 20260906132104 | 71 | 160 | 6.0 | 12.0 | 0.00 | 0.15 | 0.00 | 54 | 1017.3 |
| 20260906131604 | 71 | 175 | 4.0 | 12.0 | 0.00 | 0.15 | 0.00 | 54 | 1017.3 |
| 20260906131104 | 71 | 166 | 7.0 | 12.0 | 0.00 | 0.15 | 0.00 | 53 | 1017.3 |
| 20260906130604 | 71 | 164 | 6.0 | 12.0 | 0.00 | 0.15 | 0.00 | 53 | 1017.3 |
| 20260906125604 | 72 | 164 | 6.0 | 9.0 | 0.00 | 0.15 | 0.00 | 53 | 1016.9 |
| 20260906125104 | 72 | 165 | 6.0 | 13.0 | 0.00 | 0.15 | 0.00 | 53 | 1016.9 |
| 20260906124604 | 72 | 170 | 2.0 | 10.0 | 0.00 | 0.15 | 0.00 | 53 | 1016.9 |
| 20260906124104 | 72 | 169 | 4.0 | 12.0 | 0.00 | 0.15 | 0.00 | 53 | 1016.9 |
| 20260906123604 | 72 | 162 | 3.0 | 12.0 | 0.00 | 0.15 | 0.00 | 53 | 1016.9 |
| 20260906123104 | 71 | 165 | 7.0 | 13.0 | 0.00 | 0.15 | 0.00 | 53 | 1016.9 |
| 20260906122604 | 71 | 161 | 7.0 | 12.0 | 0.00 | 0.15 | 0.00 | 53 | 1016.9 |
| 20260906122104 | 71 | 166 | 4.0 | 10.0 | 0.00 | 0.15 | 0.00 | 54 | 1016.9 |
| 20260906121604 | 71 | 169 | 7.0 | 12.0 | 0.00 | 0.15 | 0.00 | 53 | 1016.9 |
| 20260906121104 | 71 | 151 | 7.0 | 13.0 | 0.00 | 0.15 | 0.00 | 53 | 1016.9 |
| 20260906120104 | 71 | 162 | 7.0 | 12.0 | 0.00 | 0.15 | 0.00 | 53 | 1016.6 |
| 20260906115104 | 71 | 163 | 4.0 | 10.0 | 0.00 | 0.15 | 0.00 | 53 | 1016.6 |
| 20260906114604 | 71 | 155 | 7.0 | 12.0 | 0.00 | 0.15 | 0.00 | 53 | 1016.6 |
| 20260906114104 | 71 | 156 | 5.0 | 12.0 | 0.00 | 0.15 | 0.00 | 53 | 1016.6 |
| 20260906113604 | 71 | 162 | 6.0 | 10.0 | 0.00 | 0.15 | 0.00 | 53 | 1016.6 |
| 20260906113104 | 71 | 148 | 3.0 | 10.0 | 0.00 | 0.15 | 0.00 | 53 | 1016.6 |
| 20260906112604 | 71 | 150 | 4.0 | 10.0 | 0.00 | 0.15 | 0.00 | 53 | 1016.6 |
| 20260906112104 | 71 | 164 | 7.0 | 12.0 | 0.00 | 0.15 | 0.00 | 53 | 1016.6 |
| 20260906111604 | 71 | 149 | 6.0 | 13.0 | 0.00 | 0.15 | 0.00 | 53 | 1016.6 |
| 20260906111104 | 72 | 175 | 3.0 | 10.0 | 0.00 | 0.15 | 0.00 | 53 | 1016.6 |
| 20260906110604 | 72 | 141 | 5.0 | 9.0 | 0.00 | 0.15 | 0.00 | 53 | 1016.6 |
| 20260906110105 | 72 | 162 | 5.0 | 9.0 | 0.00 | 0.15 | 0.00 | 53 | 1016.9 |
| 20260906105604 | 72 | 141 | 5.0 | 12.0 | 0.00 | 0.15 | 0.00 | 53 | 1016.9 |
| 20260906105104 | 72 | 152 | 5.0 | 12.0 | 0.00 | 0.15 | 0.00 | 53 | 1016.9 |
| 20260906104104 | 72 | 170 | 6.0 | 12.0 | 0.00 | 0.15 | 0.00 | 53 | 1016.9 |
| 20260906103604 | 72 | 160 | 6.0 | 12.0 | 0.00 | 0.15 | 0.00 | 53 | 1016.9 |
| 20260906103104 | 72 | 148 | 6.0 | 12.0 | 0.00 | 0.15 | 0.00 | 53 | 1016.9 |
| 20260906102104 | 72 | 153 | 6.0 | 14.0 | 0.00 | 0.15 | 0.00 | 53 | 1016.9 |
| 20260906101604 | 72 | 160 | 6.0 | 12.0 | 0.00 | 0.15 | 0.00 | 53 | 1016.9 |
| 20260906100604 | 72 | 172 | 4.0 | 10.0 | 0.00 | 0.15 | 0.00 | 53 | 1016.9 |
| 20260906100104 | 72 | 173 | 7.0 | 12.0 | 0.00 | 0.15 | 0.00 | 53 | 1016.6 |
| 20260906095604 | 72 | 158 | 4.0 | 12.0 | 0.00 | 0.15 | 0.00 | 53 | 1016.6 |
| 20260906095104 | 72 | 147 | 4.0 | 10.0 | 0.00 | 0.15 | 0.00 | 53 | 1016.6 |
| 20260906094604 | 72 | 167 | 5.0 | 10.0 | 0.00 | 0.15 | 0.00 | 53 | 1016.6 |
| 20260906094104 | 72 | 169 | 5.0 | 9.0 | 0.00 | 0.15 | 0.00 | 53 | 1016.6 |
| 20260906093604 | 72 | 142 | 5.0 | 10.0 | 0.00 | 0.15 | 0.00 | 53 | 1016.6 |
| 20260906090604 | 72 | 159 | 5.0 | 12.0 | 0.00 | 0.15 | 0.00 | 52 | 1016.6 |
| 20260906090104 | 72 | 136 | 5.0 | 10.0 | 0.00 | 0.15 | 0.00 | 52 | 1016.3 |
| 20260906085604 | 72 | 152 | 5.0 | 12.0 | 0.00 | 0.15 | 0.00 | 52 | 1016.3 |
| 20260906085104 | 72 | 149 | 5.0 | 12.0 | 0.00 | 0.15 | 0.00 | 52 | 1016.3 |
| 20260906084604 | 72 | 159 | 6.0 | 15.0 | 0.00 | 0.15 | 0.00 | 52 | 1016.3 |
| 20260906083604 | 72 | 147 | 3.0 | 9.0 | 0.00 | 0.15 | 0.00 | 52 | 1016.3 |
| 20260906083104 | 72 | 165 | 5.0 | 12.0 | 0.00 | 0.15 | 0.00 | 52 | 1016.3 |
| 20260906082604 | 72 | 156 | 5.0 | 12.0 | 0.00 | 0.15 | 0.00 | 52 | 1016.3 |
| 20260906081604 | 72 | 156 | 5.0 | 8.0 | 0.00 | 0.15 | 0.00 | 52 | 1016.3 |
| 20260906081104 | 72 | 137 | 5.0 | 12.0 | 0.00 | 0.15 | 0.00 | 52 | 1016.3 |
| 20260906080604 | 72 | 145 | 4.0 | 12.0 | 0.00 | 0.15 | 0.00 | 52 | 1016.3 |
| 20260906080104 | 72 | 137 | 4.0 | 12.0 | 0.00 | 0.15 | 0.00 | 52 | 1016.3 |
| 20260906075604 | 72 | 124 | 5.0 | 12.0 | 0.00 | 0.15 | 0.00 | 52 | 1016.3 |
| 20260906075103 | 72 | 142 | 3.0 | 8.0 | 0.00 | 0.15 | 0.00 | 52 | 1016.3 |
| 20260906073604 | 72 | 151 | 3.0 | 8.0 | 0.00 | 0.15 | 0.00 | 52 | 1016.3 |
| 20260906073104 | 72 | 137 | 3.0 | 9.0 | 0.00 | 0.15 | 0.00 | 52 | 1016.3 |
| 20260906072604 | 72 | 132 | 4.0 | 12.0 | 0.00 | 0.15 | 0.00 | 51 | 1016.3 |
| 20260906072104 | 72 | 146 | 3.0 | 12.0 | 0.00 | 0.15 | 0.00 | 51 | 1016.3 |
| 20260906071603 | 72 | 129 | 3.0 | 8.0 | 0.00 | 0.15 | 0.00 | 51 | 1016.3 |
| 20260906071104 | 73 | 147 | 3.0 | 7.0 | 0.00 | 0.15 | 0.00 | 51 | 1016.3 |
| 20260906070604 | 73 | 118 | 3.0 | 8.0 | 0.00 | 0.15 | 0.00 | 51 | 1016.3 |
| 20260906070104 | 73 | 133 | 5.0 | 9.0 | 0.00 | 0.15 | 0.00 | 51 | 1016.6 |
| 20260906065604 | 73 | 99 | 4.0 | 12.0 | 0.00 | 0.15 | 0.00 | 51 | 1016.6 |
| 20260906065104 | 73 | 148 | 2.0 | 9.0 | 0.00 | 0.15 | 0.00 | 51 | 1016.6 |
| 20260906064604 | 73 | 151 | 3.0 | 9.0 | 0.00 | 0.15 | 0.00 | 51 | 1016.6 |
| 20260906064105 | 73 | 149 | 3.0 | 10.0 | 0.00 | 0.15 | 0.00 | 51 | 1016.6 |
| 20260906063605 | 73 | 146 | 4.0 | 10.0 | 0.00 | 0.15 | 0.00 | 51 | 1016.6 |
| 20260906063104 | 73 | 137 | 3.0 | 12.0 | 0.00 | 0.15 | 0.00 | 51 | 1016.6 |
| 20260906062604 | 73 | 133 | 4.0 | 9.0 | 0.00 | 0.15 | 0.00 | 50 | 1016.6 |
| 20260906062104 | 73 | 128 | 3.0 | 10.0 | 0.00 | 0.15 | 0.00 | 50 | 1016.6 |
| 20260906061604 | 73 | 130 | 4.0 | 10.0 | 0.00 | 0.15 | 0.00 | 49 | 1016.3 |
| 20260906060604 | 73 | 125 | 3.0 | 8.0 | 0.00 | 0.15 | 0.00 | 48 | 1016.3 |
| 20260906060104 | 73 | 107 | 3.0 | 8.0 | 0.00 | 0.15 | 0.00 | 48 | 1016.6 |
| 20260906055603 | 73 | 118 | 3.0 | 14.0 | 0.00 | 0.15 | 0.00 | 47 | 1016.6 |
| 20260906055104 | 73 | 145 | 3.0 | 9.0 | 0.00 | 0.15 | 0.00 | 46 | 1016.6 |
| 20260906054604 | 74 | 140 | 2.0 | 12.0 | 0.00 | 0.15 | 0.00 | 45 | 1016.6 |
| 20260906054104 | 74 | 129 | 3.0 | 7.0 | 0.00 | 0.15 | 0.00 | 44 | 1016.6 |
| 20260906053604 | 74 | 129 | 3.0 | 9.0 | 0.00 | 0.15 | 0.00 | 43 | 1016.6 |
| 20260906052604 | 74 | 137 | 4.0 | 9.0 | 0.00 | 0.15 | 0.00 | 41 | 1016.6 |
| 20260906052104 | 74 | 119 | 3.0 | 10.0 | 0.00 | 0.15 | 0.00 | 41 | 1016.6 |
| 20260906051604 | 74 | 117 | 3.0 | 8.0 | 0.00 | 0.15 | 0.00 | 41 | 1016.6 |
| 20260906051104 | 75 | 137 | 2.0 | 7.0 | 0.00 | 0.15 | 0.00 | 42 | 1016.6 |
| 20260906050604 | 75 | 130 | 2.0 | 6.0 | 0.00 | 0.15 | 0.00 | 42 | 1016.6 |
| 20260906045104 | 75 | 133 | 3.0 | 7.0 | 0.00 | 0.15 | 0.15 | 43 | 1016.3 |
| 20260906044604 | 75 | 129 | 3.0 | 6.0 | 0.00 | 0.15 | 0.15 | 43 | 1016.3 |
| 20260906044104 | 75 | 105 | 3.0 | 12.0 | 0.00 | 0.15 | 0.15 | 44 | 1016.3 |
| 20260906043604 | 76 | 120 | 5.0 | 9.0 | 0.00 | 0.15 | 0.15 | 44 | 1016.3 |
| 20260906043104 | 76 | 158 | 4.0 | 9.0 | 0.00 | 0.15 | 0.15 | 44 | 1016.3 |
| 20260906042604 | 76 | 134 | 3.0 | 9.0 | 0.00 | 0.15 | 0.15 | 45 | 1016.3 |
| 20260906042104 | 76 | 127 | 3.0 | 12.0 | 0.00 | 0.15 | 0.15 | 45 | 1016.3 |
| 20260906041604 | 76 | 119 | 3.0 | 8.0 | 0.00 | 0.15 | 0.15 | 46 | 1016.3 |
| 20260906040604 | 76 | 164 | 3.0 | 9.0 | 0.00 | 0.15 | 0.15 | 47 | 1016.3 |
| 20260906040104 | 76 | 140 | 3.0 | 8.0 | 0.00 | 0.15 | 0.15 | 47 | 1016.3 |
| 20260906035604 | 76 | 152 | 2.0 | 12.0 | 0.00 | 0.15 | 0.15 | 47 | 1016.3 |
| 20260906035104 | 76 | 116 | 2.0 | 12.0 | 0.00 | 0.15 | 0.15 | 47 | 1016.3 |
| 20260906034604 | 76 | 115 | 3.0 | 7.0 | 0.00 | 0.15 | 0.15 | 48 | 1016.3 |
| 20260906033605 | 76 | 154 | 2.0 | 8.0 | 0.00 | 0.15 | 0.15 | 48 | 1016.3 |
| 20260906033104 | 76 | 129 | 3.0 | 9.0 | 0.00 | 0.15 | 0.15 | 48 | 1016.3 |
| 20260906032604 | 76 | 129 | 3.0 | 10.0 | 0.00 | 0.15 | 0.15 | 48 | 1016.3 |
| 20260906032104 | 76 | 110 | 2.0 | 9.0 | 0.00 | 0.15 | 0.15 | 48 | 1016.3 |
| 20260906031604 | 76 | 123 | 3.0 | 6.0 | 0.00 | 0.15 | 0.15 | 49 | 1016.3 |
| 20260906031104 | 76 | 123 | 2.0 | 5.0 | 0.00 | 0.15 | 0.15 | 51 | 1016.3 |
| 20260906030104 | 76 | 109 | 3.0 | 8.0 | 0.00 | 0.15 | 0.15 | 52 | 1015.9 |
| 20260906025604 | 76 | 105 | 3.0 | 10.0 | 0.00 | 0.15 | 0.15 | 52 | 1015.9 |
| 20260906025104 | 76 | 143 | 2.0 | 6.0 | 0.00 | 0.15 | 0.15 | 53 | 1015.9 |
| 20260906024604 | 76 | 102 | 4.0 | 8.0 | 0.00 | 0.15 | 0.15 | 54 | 1015.9 |
| 20260906024104 | 76 | 125 | 1.0 | 7.0 | 0.00 | 0.15 | 0.15 | 55 | 1015.9 |
| 20260906023104 | 76 | 89 | 2.0 | 6.0 | 0.00 | 0.15 | 0.15 | 61 | 1015.9 |
| 20260906022604 | 76 | 119 | 1.0 | 3.0 | 0.00 | 0.15 | 0.15 | 63 | 1015.9 |
| 20260906021603 | 77 | 114 | 2.0 | 6.0 | 0.00 | 0.15 | 0.15 | 66 | 1015.9 |
| 20260906020604 | 77 | 95 | 2.0 | 8.0 | 0.00 | 0.15 | 0.15 | 67 | 1015.9 |
| 20260906020104 | 77 | 108 | 2.0 | 8.0 | 0.00 | 0.15 | 0.15 | 68 | 1015.2 |
| 20260906015604 | 77 | 115 | 1.0 | 6.0 | 0.00 | 0.15 | 0.15 | 69 | 1015.2 |
| 20260906015104 | 77 | 112 | 1.0 | 3.0 | 0.00 | 0.15 | 0.15 | 69 | 1015.2 |
| 20260906014604 | 77 | 108 | 1.0 | 3.0 | 0.00 | 0.15 | 0.15 | 70 | 1015.2 |
| 20260906014104 | 77 | 89 | 2.0 | 3.0 | 0.00 | 0.15 | 0.15 | 71 | 1015.2 |
| 20260906013604 | 77 | 114 | 1.0 | 3.0 | 0.00 | 0.15 | 0.15 | 71 | 1015.2 |
| 20260906013104 | 78 | 97 | 1.0 | 6.0 | 0.00 | 0.15 | 0.15 | 72 | 1015.2 |
| 20260906012604 | 78 | 111 | 1.0 | 3.0 | 0.00 | 0.15 | 0.15 | 72 | 1015.2 |
| 20260906012104 | 78 | 113 | 0.0 | 3.0 | 0.00 | 0.15 | 0.15 | 73 | 1015.2 |
| 20260906011105 | 78 | 95 | 1.0 | 3.0 | 0.00 | 0.15 | 0.15 | 73 | 1015.2 |
| 20260906010603 | 78 | 123 | 0.0 | 2.0 | 0.00 | 0.15 | 0.15 | 73 | 1015.2 |
| 20260906010104 | 79 | 144 | 1.0 | 2.0 | 0.00 | 0.15 | 0.15 | 73 | 1015.6 |
| 20260906005604 | 79 | 141 | 2.0 | 6.0 | 0.00 | 0.15 | 0.15 | 73 | 1015.6 |
| 20260906005105 | 79 | 118 | 2.0 | 5.0 | 0.00 | 0.15 | 0.15 | 73 | 1015.6 |
| 20260906003604 | 80 | 102 | 2.0 | 3.0 | 0.00 | 0.15 | 0.15 | 73 | 1015.6 |
| 20260906003104 | 80 | 116 | 2.0 | 6.0 | 0.00 | 0.15 | 0.15 | 73 | 1015.6 |
| 20260906002604 | 81 | 127 | 2.0 | 5.0 | 0.00 | 0.15 | 0.15 | 72 | 1015.6 |
| 20260906002104 | 81 | 130 | 2.0 | 6.0 | 0.00 | 0.15 | 0.15 | 72 | 1015.6 |
| 20260906001604 | 81 | 132 | 2.0 | 7.0 | 0.00 | 0.15 | 0.15 | 72 | 1015.6 |
| 20260906001105 | 81 | 124 | 2.0 | 6.0 | 0.00 | 0.15 | 0.15 | 72 | 1015.6 |
| 20260906000604 | 82 | 138 | 3.0 | 7.0 | 0.00 | 0.15 | 0.15 | 71 | 1015.6 |
| 20260906000104 | 82 | 120 | 2.0 | 7.0 | 0.00 | 0.15 | 0.15 | 71 | 1015.2 |
| 20260905235604 | 82 | 115 | 3.0 | 6.0 | 0.00 | 0.15 | 0.15 | 71 | 1015.2 |
| 20260905234604 | 82 | 107 | 5.0 | 10.0 | 0.00 | 0.15 | 0.15 | 70 | 1015.2 |
| 20260905234103 | 83 | 107 | 3.0 | 8.0 | 0.00 | 0.15 | 0.15 | 70 | 1015.2 |
| 20260905233604 | 83 | 154 | 3.0 | 8.0 | 0.00 | 0.15 | 0.15 | 69 | 1015.2 |
| 20260905233104 | 83 | 122 | 3.0 | 10.0 | 0.00 | 0.15 | 0.15 | 69 | 1015.2 |
| 20260905232604 | 83 | 115 | 5.0 | 12.0 | 0.00 | 0.15 | 0.15 | 69 | 1015.2 |
| 20260905232104 | 83 | 114 | 3.0 | 8.0 | 0.00 | 0.15 | 0.15 | 69 | 1015.2 |
| 20260905231604 | 83 | 131 | 5.0 | 10.0 | 0.00 | 0.15 | 0.15 | 68 | 1015.2 |
| 20260905230604 | 83 | 138 | 1.0 | 12.0 | 0.00 | 0.15 | 0.15 | 68 | 1015.2 |
| 20260905230105 | 84 | 123 | 4.0 | 12.0 | 0.00 | 0.15 | 0.15 | 67 | 1014.9 |
| 20260905225604 | 84 | 143 | 2.0 | 12.0 | 0.00 | 0.15 | 0.15 | 67 | 1014.9 |
| 20260905225104 | 84 | 120 | 2.0 | 9.0 | 0.00 | 0.15 | 0.15 | 67 | 1014.9 |
| 20260905224604 | 84 | 163 | 5.0 | 10.0 | 0.00 | 0.15 | 0.15 | 67 | 1014.9 |
| 20260905224104 | 84 | 129 | 3.0 | 9.0 | 0.00 | 0.15 | 0.15 | 67 | 1014.9 |
| 20260905223604 | 84 | 90 | 3.0 | 8.0 | 0.00 | 0.15 | 0.15 | 68 | 1014.9 |
| 20260905221104 | 83 | 170 | 2.0 | 9.0 | 0.00 | 0.15 | 0.15 | 67 | 1014.9 |
| 20260905220604 | 83 | 62 | 2.0 | 9.0 | 0.00 | 0.15 | 0.15 | 68 | 1014.9 |
| 20260905220104 | 84 | 124 | 1.0 | 10.0 | 0.00 | 0.15 | 0.15 | 68 | 1014.6 |
| 20260905215604 | 83 | 113 | 2.0 | 7.0 | 0.00 | 0.15 | 0.15 | 69 | 1014.6 |
| 20260905215104 | 83 | 79 | 2.0 | 7.0 | 0.00 | 0.15 | 0.15 | 68 | 1014.6 |
| 20260905214604 | 83 | 79 | 1.0 | 5.0 | 0.00 | 0.15 | 0.15 | 69 | 1014.6 |
| 20260905213104 | 83 | 83 | 2.0 | 7.0 | 0.00 | 0.15 | 0.15 | 69 | 1014.6 |
| 20260905212603 | 82 | 63 | 2.0 | 9.0 | 0.00 | 0.15 | 0.15 | 69 | 1014.6 |
| 20260905211604 | 83 | 99 | 3.0 | 9.0 | 0.00 | 0.15 | 0.15 | 69 | 1014.6 |
| 20260905210604 | 82 | 90 | 4.0 | 9.0 | 0.00 | 0.15 | 0.15 | 68 | 1014.6 |
| 20260905210104 | 82 | 108 | 3.0 | 12.0 | 0.00 | 0.15 | 0.15 | 68 | 1014.2 |
| 20260905205603 | 82 | 120 | 3.0 | 9.0 | 0.00 | 0.15 | 0.15 | 67 | 1014.2 |
| 20260905205104 | 82 | 141 | 5.0 | 10.0 | 0.00 | 0.15 | 0.15 | 68 | 1014.2 |
| 20260905204604 | 82 | 126 | 5.0 | 9.0 | 0.00 | 0.15 | 0.15 | 67 | 1014.2 |
| 20260905204104 | 83 | 107 | 3.0 | 9.0 | 0.00 | 0.15 | 0.15 | 66 | 1014.2 |
| 20260905203604 | 83 | 106 | 2.0 | 7.0 | 0.00 | 0.15 | 0.15 | 66 | 1014.2 |
| 20260905202104 | 83 | 109 | 2.0 | 7.0 | 0.00 | 0.15 | 0.15 | 65 | 1014.2 |
| 20260905201604 | 83 | 96 | 2.0 | 9.0 | 0.00 | 0.15 | 0.15 | 64 | 1014.2 |
| 20260905201104 | 82 | 107 | 4.0 | 10.0 | 0.00 | 0.15 | 0.15 | 65 | 1014.2 |
| 20260905200603 | 82 | 117 | 1.0 | 7.0 | 0.00 | 0.15 | 0.15 | 68 | 1014.2 |
| 20260905195104 | 82 | 129 | 3.0 | 10.0 | 0.00 | 0.15 | 0.15 | 67 | 1014.9 |
| 20260905194104 | 82 | 155 | 3.0 | 12.0 | 0.00 | 0.15 | 0.15 | 68 | 1014.9 |
| 20260905193605 | 82 | 126 | 3.0 | 14.0 | 0.00 | 0.15 | 0.15 | 70 | 1014.9 |
| 20260905193104 | 83 | 100 | 4.0 | 14.0 | 0.00 | 0.15 | 0.15 | 69 | 1014.9 |
| 20260905192604 | 84 | 109 | 3.0 | 10.0 | 0.00 | 0.15 | 0.15 | 66 | 1014.9 |
| 20260905192104 | 84 | 87 | 4.0 | 16.0 | 0.00 | 0.15 | 0.15 | 66 | 1014.9 |
| 20260905191104 | 85 | 82 | 4.0 | 16.0 | 0.00 | 0.15 | 0.15 | 65 | 1014.9 |
| 20260905185604 | 86 | 79 | 3.0 | 8.0 | 0.00 | 0.15 | 0.15 | 61 | 1014.9 |
| 20260905185104 | 86 | 106 | 1.0 | 3.0 | 0.00 | 0.15 | 0.15 | 59 | 1014.9 |
| 20260905184604 | 86 | 154 | 0.0 | 3.0 | 0.00 | 0.15 | 0.15 | 60 | 1014.9 |
| 20260905184104 | 86 | 155 | 1.0 | 2.0 | 0.00 | 0.15 | 0.15 | 60 | 1014.9 |
| 20260905183604 | 85 | 131 | 0.0 | 0.0 | 0.00 | 0.15 | 0.15 | 60 | 1014.9 |